Location: Hamburg
(53.5554°N, 9.9941°E)
Time: 00:48:34
(UTC+01:00)

ISS - Pass Details

Date: 15 November 2017
Orbit: 402 x 407 km, 51.6° (Epoch: 23 November)

Event Time Altitude Azimuth Distance (km) Brightness Sun altitude
Exits shadow 04:55:11 17° 143° (SE) 1,119 -1.3 -25.1°
Drops below altitude 10° 04:56:07 10° 135° (SE) 1,453 -0.5 -24.9°
Sets 04:58:17 0° 126° (SE) 2,310 0.8 -24.6°
